"TOA5","AWS1","CR1000","7964","CR1000.Std.14","CPU:AWS1_114.CR1","64363","TBL110"
"TIMESTAMP","RECORD","Wind_spd_WVc(1)","Wind_spd_WVc(2)","Air_Temp_Avg","Humidity_Avg","SW_upper_Wm2_Avg","Rain_Tot","Press_Avg","Issui_Tot","Depth_cm","SR50A_Raw","Quality","Ground_Temp_Avg(1)","Ground_Temp_Avg(2)","SW_lower_Wm2_Avg","Albedo_Avg","SWC_per(1)","SWC_per(2)","Period(1)","Period(2)"
"TS","RN","","","","","","","","","","","","","","","","","","",""
"","","WVc","WVc","Avg","Avg","Avg","Tot","Avg","Tot","Smp","Smp","Smp","Avg","Avg","Avg","Avg","Smp","Smp","Smp","Smp"
"2017-06-21 00:00:00",293389,0.426,142.1,15.32,48.79,0,0,864.7546,0,-11.07,3.202,170,17.09,15.7,0.09094898,0,41.89,51.05,31.21,33.56
"2017-06-21 00:10:00",293390,0.49,219,15.6,44.81,0,0,864.6197,0,20.21,2.897,288,17.04,15.71,0.3979018,0,41.84,51.05,31.2,33.56
"2017-06-21 00:20:00",293391,0.421,340,15.41,46.83,0,0,864.608,0,-19.14,3.282,192,17.09,15.71,0,0,41.84,51.05,31.2,33.56
"2017-06-21 00:30:00",293392,0.357,33.5,15.44,45.31,0,0,864.5987,0,-20.47,3.292,328,16.97,15.71,0.1970561,0,41.84,51.05,31.2,33.56
"2017-06-21 00:40:00",293393,0.494,16.74,15.47,45.52,0,0,864.4594,0,-21.81,3.306,221,16.97,15.71,0.01515816,0,41.89,51.05,31.21,33.56
"2017-06-21 00:50:00",293394,0.256,328.6,15.27,46.91,0,0,864.3464,0,-21.99,3.308,203,16.98,15.71,0.01136862,0,41.89,51.05,31.21,33.56
"2017-06-21 01:00:00",293395,0.521,327.4,15.07,49.08,0,0,864.5131,0,18.5,2.918,306,16.89,15.71,0.2084248,0,41.84,51.05,31.2,33.56
"2017-06-21 01:10:00",293396,0.493,26.4,14.27,56.33,0,0,864.6498,0,19.33,2.913,309,16.9,15.71,0.3979018,0,41.89,51.05,31.21,33.56
"2017-06-21 01:20:00",293397,0.232,41.58,13.78,61.9,0,0,864.7782,0,-22.32,3.323,209,16.92,15.73,0.9587539,0,41.89,51.05,31.21,33.56
"2017-06-21 01:30:00",293398,0.44,103,13.11,66.31,0,0,864.7205,0,-22.19,3.323,200,16.85,15.75,1.136862,0,41.84,50.99,31.2,33.54
"2017-06-21 01:40:00",293399,1.44,137.2,13.47,61.52,0,0,864.4877,0,318,0,0,16.84,15.73,2.387411,0,41.89,50.99,31.21,33.54
"2017-06-21 01:50:00",293400,1.302,148.3,13.68,60.45,0,0,864.47,0,318,0,0,16.75,15.67,1.762137,0,41.89,50.99,31.21,33.54
"2017-06-21 02:00:00",293401,1.544,149.1,13.54,61.5,0,0,864.5547,0,-20.63,3.308,178,16.73,15.65,2.648889,0,41.89,50.99,31.21,33.54
"2017-06-21 02:10:00",293402,1.168,138.6,12.83,67.01,0,0.5,864.3863,0,318,0,0,16.78,15.62,3.584906,0,41.89,50.99,31.21,33.54
"2017-06-21 02:20:00",293403,1.462,141.2,12.29,70.42,0,0.5,864.2409,0,-14.6,3.254,172,16.68,15.59,3.641749,0,41.89,50.99,31.21,33.54
"2017-06-21 02:30:00",293404,1.248,133.6,11.97,73.03,0,0.5,863.965,0,-12.99,3.241,171,16.68,15.64,3.641749,0,41.89,50.99,31.21,33.54
"2017-06-21 02:40:00",293405,1.473,122.8,11.83,72.98,0,0.5,863.7269,0,318,0,0,16.65,15.66,3.118792,0,41.89,50.99,31.21,33.54
"2017-06-21 02:50:00",293406,1.017,138.1,11.63,76.17,0,0.5,863.8176,0,-44.64,3.553,230,16.57,15.67,3.262795,0,41.89,50.99,31.21,33.54
"2017-06-21 03:00:00",293407,0.887,140,11.36,78.89,0,0,863.7249,0,-4.301,3.159,195,16.62,15.67,2.872486,0,41.89,50.99,31.21,33.54
"2017-06-21 03:10:00",293408,0.661,136.5,11.06,82.9,0,0.5,863.5774,0,-10.53,3.221,176,16.61,15.67,2.413968,0,41.89,50.99,31.21,33.54
"2017-06-21 03:20:00",293409,0.883,129.8,10.99,84,0,0.5,863.3816,0,29.13,2.832,267,16.54,15.67,2.455639,0,41.89,50.99,31.21,33.54
"2017-06-21 03:30:00",293410,0.586,138.2,10.94,85.3,0,0.5,863.2742,0,27.46,2.849,264,16.54,15.67,2.315416,0,41.94,50.99,31.22,33.54
"2017-06-21 03:40:00",293411,0.634,100.7,10.75,93,0,0.5,863.0193,0,-10.94,3.228,176,16.45,15.67,1.898563,0,41.89,50.99,31.21,33.54
"2017-06-21 03:50:00",293412,0.454,162.1,10.63,98.4,0,0,862.8298,0,20.3,2.921,309,16.45,15.67,1.891006,0,41.94,50.99,31.22,33.54
"2017-06-21 04:00:00",293413,0.573,47.37,10.65,99.3,0,0,862.8151,0,-11.07,3.229,170,16.38,15.68,1.913794,0,41.94,50.99,31.22,33.54
"2017-06-21 04:10:00",293414,0.468,138.4,10.54,100,0,0,862.398,0,-11.81,3.236,169,16.36,15.67,1.62577,0,41.94,50.99,31.22,33.54
"2017-06-21 04:20:00",293415,1.033,138.2,10.87,93.1,0.1100507,0,861.9114,0,-10.25,3.218,176,16.35,15.67,2.448114,1.928,41.94,50.99,31.22,33.54
"2017-06-21 04:30:00",293416,0.692,144.4,10.98,91.3,0.1021891,0,861.6017,0,-9.23,3.209,182,16.25,15.64,2.285128,3.455,41.94,50.99,31.22,33.54
"2017-06-21 04:40:00",293417,0.565,67.71,10.8,97.2,0.2397517,0,861.4438,0,-10.58,3.222,171,16.28,15.62,1.921332,3.68,41.94,50.99,31.22,33.54
"2017-06-21 04:50:00",293418,0.551,75.58,10.84,96.6,0.3851714,0.5,861.0837,0,318,0,0,16.25,15.59,1.959215,2.459,41.94,50.94,31.22,33.53
"2017-06-21 05:00:00",293419,0.44,110,10.71,99.6,1.804012,0,860.8331,0,-21.84,3.334,195,16.19,15.59,1.978152,1.771,41.94,50.94,31.22,33.53
"2017-06-21 05:10:00",293420,0.357,340.6,10.56,100,4.476659,0,860.675,0,318,0,0,16.18,15.62,1.88343,0.422,41.94,50.99,31.22,33.54
"2017-06-21 05:20:00",293421,0.311,60.61,10.53,100,7.117802,0,860.4855,0,-10.81,3.227,175,16.14,15.61,2.148689,0.34,41.99,50.99,31.24,33.54
"2017-06-21 05:30:00",293422,0.673,303.8,10.51,100,16.47188,0,860.2875,0,318,0,0,16.07,15.58,3.467443,0.21,41.99,50.99,31.24,33.54
"2017-06-21 05:40:00",293423,0.592,185.3,10.63,100,20.38248,0.5,860.1906,0,-12.52,3.243,176,16.1,15.58,3.85018,0.192,41.99,50.94,31.24,33.53
"2017-06-21 05:50:00",293424,0.827,312,10.67,100,27.70852,0,859.9568,0,21.96,2.903,295,16.09,15.58,4.786194,0.174,41.99,50.99,31.24,33.54
"2017-06-21 06:00:00",293425,1.029,209.8,11.18,99.1,21.42399,0,859.8621,0,0.271,3.109,228,16,15.58,4.566401,0.213,42.04,50.99,31.25,33.54
"2017-06-21 06:10:00",293426,1.279,110.4,12.38,85.6,21.40827,0,859.7694,0,-14.6,3.253,185,15.97,15.58,5.570631,0.26,41.99,50.99,31.24,33.54
"2017-06-21 06:20:00",293427,1.397,134.9,12.91,82.6,18.13827,0.5,859.7399,0,-15.05,3.255,171,16,15.58,5.24473,0.297,42.04,50.94,31.25,33.53
"2017-06-21 06:30:00",293428,1.578,140.8,12.88,86.6,32.60173,0,859.4893,0,-11.11,3.215,171,16,15.58,5.923058,0.182,42.04,50.99,31.25,33.54
"2017-06-21 06:40:00",293429,1.768,136.1,13.16,85,16.0395,0.5,859.0322,0,28.89,2.823,298,15.88,15.58,4.32766,0.286,42.04,50.99,31.25,33.54
"2017-06-21 06:50:00",293430,1.992,148.6,13.18,87.7,11.86554,0.5,858.889,0,-12.69,3.229,176,15.86,15.58,2.724683,0.23,42.04,50.99,31.25,33.54
"2017-06-21 07:00:00",293431,2.167,141.3,13.44,86.5,17.69022,0.5,858.7415,0,318,0,0,15.92,15.58,3.467433,0.196,42.04,50.99,31.25,33.54
"2017-06-21 07:10:00",293432,3.045,149.4,13.76,83,29.2492,0,858.4698,0,318,0,0,15.93,15.58,5.343257,0.183,42.09,50.99,31.26,33.54
"2017-06-21 07:20:00",293433,2.442,147.5,13.74,85,25.201,0.5,858.7479,0,-13.66,3.236,176,15.92,15.58,4.346608,0.173,42.09,50.99,31.26,33.54
"2017-06-21 07:30:00",293434,1.419,150,13.51,91.2,14.15689,0.5,858.7079,0,20.8,2.902,263,15.81,15.58,2.554153,0.179,42.09,50.99,31.26,33.54
"2017-06-21 07:40:00",293435,2.753,151.2,13.69,90.4,10.45063,0.5,858.2656,0,318,0,0,15.78,15.58,1.701506,0.163,42.09,51.05,31.26,33.56
"2017-06-21 07:50:00",293436,2.847,145.1,13.83,89.4,14.85649,0.5,857.6463,0,318,0,0,15.8,15.58,2.046354,0.141,42.14,51.05,31.28,33.56
"2017-06-21 08:00:00",293437,3.939,158.9,14.29,83.9,56.44285,0.5,857.6021,0,-13.63,3.231,178,15.8,15.54,7.256978,0.128,42.19,50.99,31.29,33.54
"2017-06-21 08:10:00",293438,3.113,146.3,14.61,81.9,48.04383,0,857.8064,0,-14.29,3.238,179,15.78,15.51,7.499509,0.157,42.25,50.99,31.3,33.54
"2017-06-21 08:20:00",293439,2.665,143.2,14.48,84.3,44.96248,0,857.9812,0,-14.55,3.242,172,15.69,15.49,6.32096,0.141,42.3,51.05,31.32,33.56
"2017-06-21 08:30:00",293440,2.477,151.6,14.01,93.1,25.28747,0.5,857.8815,0,-13.68,3.235,178,15.71,15.49,2.857316,0.112,42.3,50.99,31.32,33.54
"2017-06-21 08:40:00",293441,2.895,142.6,13.98,93.9,13.20576,0.5,857.6685,0,-10.69,3.206,177,15.73,15.46,1.368026,0.104,42.3,50.99,31.32,33.54
"2017-06-21 08:50:00",293442,2.485,149.3,13.91,97,10.52531,0.5,857.5297,0,318,0,0,15.71,15.45,1.019387,0.096,42.4,50.99,31.34,33.54
"2017-06-21 09:00:00",293443,2.094,149.4,14.1,97.8,13.34332,1,857.8651,0,-13.96,3.236,171,15.59,15.46,1.398342,0.105,42.45,50.99,31.36,33.54
"2017-06-21 09:10:00",293444,2.151,145.8,14.33,94.8,27.04823,0.5,857.8583,0,-23.5,3.328,234,15.6,15.46,2.959634,0.106,42.5,50.99,31.37,33.54
"2017-06-21 09:20:00",293445,2.231,149,14.29,95.9,91.50101,0.5,857.5937,0,318,0,0,15.62,15.48,11.14126,0.121,42.65,50.99,31.41,33.54
"2017-06-21 09:30:00",293446,2.197,147.2,14.24,97.7,138.9238,0.5,857.3328,0,-15.06,3.246,182,15.66,15.48,17.3599,0.125,42.81,50.99,31.45,33.54
"2017-06-21 09:40:00",293447,2.106,146.1,14.34,96,120.424,0,857.4243,0,-14.55,3.242,176,15.61,15.46,15.0407,0.125,43.06,50.99,31.52,33.54
"2017-06-21 09:50:00",293448,2.338,142.8,14.41,96.6,104.7814,0.5,857.4931,0,-23.66,3.328,200,15.5,15.41,12.68361,0.121,43.32,51.05,31.59,33.56
"2017-06-21 10:00:00",293449,2.321,167.7,14.61,95,95.9894,0.5,857.3919,0,-20.17,3.295,180,15.51,15.38,11.26253,0.116,43.58,51.05,31.66,33.56
"2017-06-21 10:10:00",293450,1.852,160.6,14.56,97.3,30.65624,0.5,857.3681,0,-20.12,3.295,183,15.53,15.32,3.149112,0.102,43.89,51.05,31.74,33.56
"2017-06-21 10:20:00",293451,1.927,146.6,14.5,99.4,23.68784,0,857.3723,0,-21.76,3.311,179,15.55,15.33,2.311622,0.096,44.25,51.05,31.83,33.56
"2017-06-21 10:30:00",293452,2.463,140.2,14.75,96.2,94.6531,0.5,857.038,0,24.26,2.861,297,15.58,15.35,11.49369,0.12,44.61,51.05,31.93,33.56
"2017-06-21 10:40:00",293453,2.312,146,14.86,98.2,125.5648,0,856.655,0,17.81,2.923,302,15.58,15.36,15.5864,0.124,45.03,51.05,32.04,33.56
"2017-06-21 10:50:00",293454,2.181,147.5,15.48,94.5,297.8175,0,856.4509,0,318,0,0,15.56,15.36,40.7755,0.136,45.4,51.1,32.13,33.57
"2017-06-21 11:00:00",293455,2.062,150,16.36,84.8,423.8304,0,856.1888,0,16.46,2.928,364,15.54,15.33,59.56731,0.141,45.87,51.1,32.25,33.57
"2017-06-21 11:10:00",293456,1.619,155.6,16.68,82.3,223.9238,0,856.3305,0,14.65,2.944,316,15.53,15.32,32.0665,0.143,46.24,51.05,32.35,33.56
"2017-06-21 11:20:00",293457,1.643,166.1,16.94,81.9,209.7507,0,856.27,0,6.592,3.021,330,15.51,15.3,30.49963,0.145,46.61,51.05,32.44,33.56
"2017-06-21 11:30:00",293458,1.28,152.3,17.02,82.5,278.8624,0,856.2042,0,318,0,0,15.47,15.28,40.23448,0.144,46.93,51.1,32.52,33.57
"2017-06-21 11:40:00",293459,1.639,149.2,17.06,79.25,302.5592,0,856.1141,0,-16.5,3.246,171,15.43,15.26,43.8182,0.145,47.25,51.1,32.61,33.57
"2017-06-21 11:50:00",293460,1.589,160.4,16.85,79.94,282.4165,0.5,855.9767,0,-31.67,3.394,250,15.41,15.26,40.45586,0.143,47.46,51.16,32.66,33.58
"2017-06-21 12:00:00",293461,1.499,162.2,16.48,86.4,286.2851,0,855.8799,0,-16.91,3.253,171,15.4,15.23,39.03826,0.137,47.68,51.16,32.71,33.58
"2017-06-21 12:10:00",293462,1.141,159.2,16.32,94.9,250.0702,0,855.8672,0,-14.18,3.227,169,15.4,15.19,33.76856,0.135,47.89,51.16,32.77,33.58
"2017-06-21 12:20:00",293463,1.347,157.8,16.31,95.7,231.9376,0.5,855.7325,0,-10.81,3.193,183,15.4,15.2,33.348,0.144,48,51.16,32.8,33.58
"2017-06-21 12:30:00",293464,1.265,162.1,16.3,96.8,196.3805,0.5,855.7219,0,26.54,2.832,244,15.39,15.19,27.49892,0.14,48.11,51.21,32.82,33.6
"2017-06-21 12:40:00",293465,1.138,152.8,16.28,100,385.1602,0,855.6883,0,28.12,2.815,295,15.43,15.17,52.6683,0.137,48.27,51.27,32.86,33.61
"2017-06-21 12:50:00",293466,0.74,122.8,16.65,100,365.3073,0,855.6967,0,27.81,2.818,253,15.49,15.18,51.05885,0.14,48.43,51.27,32.9,33.61
"2017-06-21 13:00:00",293467,0.834,130.7,16.79,99.4,306.2831,0.5,855.6714,0,-11.36,3.196,170,15.46,15.15,43.5506,0.143,48.59,51.27,32.95,33.61
"2017-06-21 13:10:00",293468,0.585,248.1,16.88,99.7,297.1177,0,855.5535,0,19.4,2.899,334,15.48,15.14,42.91374,0.144,48.7,51.33,32.97,33.62
"2017-06-21 13:20:00",293469,0.537,94.5,16.88,100,348.4084,0,855.4355,0,-11.96,3.202,191,15.55,15.14,48.73603,0.14,48.75,51.38,32.99,33.64
"2017-06-21 13:30:00",293470,0.749,215.5,16.71,100,263.3496,0,855.2208,0,27.66,2.819,260,15.53,15.14,37.05292,0.141,48.81,51.33,33,33.62
"2017-06-21 13:40:00",293471,0.341,165.3,16.69,100,155.5706,0,855.1872,0,-12.29,3.206,181,15.58,15.14,22.07036,0.142,48.81,51.38,33,33.64
"2017-06-21 13:50:00",293472,0.526,277.3,16.71,100,115.7586,0,855.2756,0,-12.04,3.205,170,15.61,15.14,16.19099,0.14,48.92,51.44,33.03,33.65
"2017-06-21 14:00:00",293473,0.581,86.5,16.54,100,165.943,0,855.4418,0,-12.2,3.207,170,15.66,15.1,21.93019,0.132,48.97,51.49,33.04,33.66
"2017-06-21 14:10:00",293474,0.414,17.63,16.42,100,127.2861,0,855.5029,0,-11.43,3.2,170,15.66,15.05,16.75165,0.132,48.97,51.49,33.04,33.66
"2017-06-21 14:20:00",293475,0.317,21.15,16.39,100,102.0151,0,855.5367,0,318,0,0,15.71,15.01,13.61877,0.133,48.97,51.55,33.04,33.68
"2017-06-21 14:30:00",293476,0.537,14.34,16.26,100,88.27164,0.5,855.6672,0,-44.98,3.527,250,15.74,15.02,11.59963,0.131,49.03,51.6,33.05,33.69
"2017-06-21 14:40:00",293477,0.327,3.952,16.3,100,101.5673,0,855.6924,0,17.85,2.916,253,15.72,15.02,13.29298,0.13,49.08,51.6,33.07,33.69
"2017-06-21 14:50:00",293478,0.279,15.02,16.3,100,96.34382,0,855.6483,0,15.56,2.938,337,15.8,15.03,12.59622,0.131,49.08,51.71,33.07,33.72
"2017-06-21 15:00:00",293479,0.476,34.48,16.34,100,116.0045,0,855.6819,0,18.38,2.91,226,15.84,15.04,15.34652,0.132,49.08,51.77,33.07,33.73
"2017-06-21 15:10:00",293480,0.538,97.7,16.49,100,127.3894,0,855.5851,0,-16.09,3.244,171,15.85,15.05,16.85081,0.132,49.13,51.82,33.08,33.75
"2017-06-21 15:20:00",293481,0.357,91.9,16.59,100,126.0448,0.5,855.4777,0,-12.46,3.208,170,15.89,15.05,16.44914,0.13,49.13,51.88,33.08,33.76
"2017-06-21 15:30:00",293482,0.454,71.47,16.58,100,74.18437,0,855.4398,0,318,0,0,15.92,15.06,9.73606,0.131,49.19,51.94,33.09,33.77
"2017-06-21 15:40:00",293483,0.304,88.3,16.62,100,82.7683,0,855.4398,0,17.72,2.916,232,15.89,15.06,10.96714,0.132,49.19,51.99,33.09,33.79
"2017-06-21 15:50:00",293484,0.552,86.2,16.63,100,89.03818,0,855.5156,0,318,0,0,15.9,15.05,11.98987,0.134,49.24,52.1,33.11,33.81
"2017-06-21 16:00:00",293485,0.319,33,16.67,100,59.24906,0,855.6693,0,-34.7,3.424,213,15.96,15.06,7.553844,0.127,49.3,52.16,33.12,33.83
"2017-06-21 16:10:00",293486,0.149,19.44,16.68,100,62.0865,0,855.6924,0,-22.76,3.308,188,15.97,15.06,8.027472,0.129,49.3,52.21,33.12,33.84
"2017-06-21 16:20:00",293487,0.161,21.12,16.65,100,52.98663,0.5,855.6904,0,18.58,2.908,253,16,15.06,6.781082,0.127,49.35,52.32,33.14,33.87
"2017-06-21 16:30:00",293488,0.06,318.5,16.41,100,47.83923,0,855.7662,0,-34.16,3.42,262,16.04,15.06,6.254454,0.13,49.35,52.44,33.14,33.89
"2017-06-21 16:40:00",293489,0.522,70.12,16.64,100,68.61279,0.5,855.6904,0,14.28,2.948,305,16.09,15.06,9.175361,0.134,49.35,52.49,33.14,33.91
"2017-06-21 16:50:00",293490,0.623,93.1,16.7,100,54.81417,0,855.762,0,2.995,3.058,229,16.06,15.06,7.322884,0.134,49.41,52.66,33.15,33.95
"2017-06-21 17:00:00",293491,0.343,95.7,16.76,100,94.30164,0,855.8146,0,-27.96,3.358,216,16.06,15.06,13.21763,0.141,49.46,52.77,33.16,33.98
"2017-06-21 17:10:00",293492,0.729,98.1,16.83,100,114.2638,0,855.6924,0,24.48,2.849,316,16.06,15.05,15.93369,0.139,49.46,52.83,33.16,33.99
"2017-06-21 17:20:00",293493,0.47,99.7,16.85,100,32.46552,0,855.8378,0,-37.05,3.446,257,16.07,15.06,4.428553,0.14,49.51,53,33.18,34.03
"2017-06-21 17:30:00",293494,0.46,58.05,16.76,100,14.77297,0,856.0441,0,2.873,3.059,494,16.11,15.06,2.371467,0.161,49.51,53.16,33.18,34.07
"2017-06-21 17:40:00",293495,0.45,53.95,16.67,100,23.47946,0,856.2188,0,2.691,3.061,422,16.1,15.05,3.583698,0.153,49.57,53.28,33.19,34.1
"2017-06-21 17:50:00",293496,0.421,58.61,16.66,100,23.1182,0,856.2715,0,25.97,2.835,418,16.1,15.06,3.545847,0.154,49.57,53.45,33.19,34.14
"2017-06-21 18:00:00",293497,0.495,54.95,16.65,100,18.83974,0,856.2862,0,-12.84,3.212,172,16.1,15.06,2.867775,0.152,49.57,53.56,33.19,34.17
"2017-06-21 18:10:00",293498,0.27,63,16.59,100,10.4079,0.5,856.4567,0,-22.86,3.31,201,16.1,15.06,1.670639,0.161,49.57,53.67,33.19,34.19
"2017-06-21 18:20:00",293499,0.187,41.63,16.53,100,10.67893,0,856.4904,0,318,0,0,16.09,15.05,1.68578,0.159,49.57,53.84,33.19,34.23
"2017-06-21 18:30:00",293500,0.477,58.03,16.48,100,5.865924,0.5,856.7768,0,-16.63,3.25,170,16.07,15.05,1.019041,0.176,49.57,53.95,33.19,34.26
"2017-06-21 18:40:00",293501,0.258,250.6,16.06,100,12.22295,0,856.9495,0,18.57,2.911,250,16.06,15.05,2.106269,0.171,49.57,54.12,33.19,34.3
"2017-06-21 18:50:00",293502,0.204,216.3,15.75,100,3.249239,0.5,857.2274,0,318,0,0,16.06,15.05,0.6250616,0.19,49.68,54.29,33.22,34.34
"2017-06-21 19:00:00",293503,0.457,60.34,15.45,100,3.956522,0,857.4337,0,-27.49,3.362,199,16.08,15.06,0.9698105,0.243,49.73,54.41,33.23,34.37
"2017-06-21 19:10:00",293504,0.487,48.77,15.07,100,0.6404424,0,857.7011,0,16.92,2.932,243,16.11,15.07,0.4697683,0.377,49.73,54.58,33.23,34.41
"2017-06-21 19:20:00",293505,0.677,41,14.62,100,0.2475544,0,857.9538,0,-25.44,3.347,197,16.13,15.08,0.5910326,0.235,49.73,54.69,33.23,34.44
"2017-06-21 19:30:00",293506,0.524,44.87,14.35,100,0.2279103,0,858.0843,0,-23.6,3.33,190,16.14,15.11,0.7767155,0.274,49.79,54.86,33.24,34.48
"2017-06-21 19:40:00",293507,0.294,26.4,14.32,100,0,0,858.2601,0,19.02,2.914,411,16.15,15.12,0.5721413,0,49.79,54.97,33.24,34.51
"2017-06-21 19:50:00",293508,0.199,95.6,14.29,100,0,0,858.4603,0,-23.23,3.327,178,16.15,15.12,0.6555089,0,49.84,55.15,33.26,34.55
"2017-06-21 20:00:00",293509,0.079,357.7,14.21,100,0,0,858.6673,0,-22.52,3.32,183,16.17,15.13,0.591115,0,49.79,55.26,33.24,34.57
"2017-06-21 20:10:00",293510,0.237,48.82,14.15,100,0,0,858.8825,0,14.06,2.964,284,16.18,15.13,0.5835572,0,49.84,55.37,33.26,34.6
"2017-06-21 20:20:00",293511,0.317,30.88,13.9,100,0,0,858.9052,0,-22.45,3.322,191,16.21,15.14,0.829887,0,49.79,55.49,33.24,34.63
"2017-06-21 20:30:00",293512,0.021,294.4,13.73,100,0,0,858.9823,0,18.24,2.925,262,16.23,15.15,0.9094805,0,49.79,55.55,33.24,34.64
"2017-06-21 20:40:00",293513,0.178,61.98,13.74,100,0,0,859.2457,0,19.93,2.908,358,16.23,15.15,0.8905393,0,49.79,55.6,33.24,34.65
"2017-06-21 20:50:00",293514,0.166,52.18,13.82,100,0,0,859.2539,0,19.01,2.917,395,16.23,15.15,0.8336985,0,49.73,55.72,33.23,34.68
"2017-06-21 21:00:00",293515,0.104,203.3,13.83,100,0,0,859.259,0,16.86,2.938,282,16.25,15.15,0.8867525,0,49.73,55.77,33.23,34.7
"2017-06-21 21:10:00",293516,0.089,108.5,13.79,100,0,0,859.4529,0,12.55,2.98,265,16.22,15.15,0.8374885,0,49.73,55.83,33.23,34.71
"2017-06-21 21:20:00",293517,0,0,13.78,100,0,0,859.576,0,12.63,2.979,266,16.19,15.15,0.8412781,0,49.73,55.89,33.23,34.72
"2017-06-21 21:30:00",293518,0,0,13.74,100,0,0,859.7477,0,12.24,2.983,257,16.17,15.15,0.6707488,0,49.73,55.95,33.23,34.74
"2017-06-21 21:40:00",293519,0,0,13.75,100,0,0,859.8173,0,12.19,2.984,242,16.19,15.15,0.4547449,0,49.68,56,33.22,34.75
"2017-06-21 21:50:00",293520,0.027,106.5,13.73,100,0,0,859.807,0,-26.45,3.361,198,16.19,15.17,0.5343253,0,49.73,56.06,33.23,34.76
"2017-06-21 22:00:00",293521,0.018,99.5,13.76,100,0,0,859.8832,0,12.22,2.983,245,16.14,15.21,0.4547449,0,49.68,56.06,33.22,34.76
"2017-06-21 22:10:00",293522,0.003,14.3,13.77,100,0,0,860.0237,0,13.83,2.968,266,16.15,15.23,0.4547449,0,49.73,56.12,33.23,34.78
"2017-06-21 22:20:00",293523,0.053,14.49,13.7,100,0,0,860.0558,0,-23.17,3.329,185,16.11,15.25,0.4547449,0,49.73,56.18,33.23,34.79
"2017-06-21 22:30:00",293524,0.351,22.03,13.61,100,0,0,860.0126,0,-0.573,3.109,239,16.06,15.27,0.9473853,0,49.68,56.12,33.22,34.78
"2017-06-21 22:40:00",293525,0.391,3.178,13.61,100,0,0,860.2576,0,-25.01,3.348,198,16.04,15.28,1.042124,0,49.73,56.18,33.23,34.79
"2017-06-21 22:50:00",293526,0.538,25.72,13.63,100,0,0,860.2218,0,-26.42,3.362,198,16.05,15.29,1.326339,0,49.68,56.18,33.22,34.79
"2017-06-21 23:00:00",293527,0.674,339.2,13.47,100,0,0,860.1601,0,18.53,2.923,320,16.06,15.29,1.144441,0,49.68,56.23,33.22,34.8
"2017-06-21 23:10:00",293528,0.779,312.4,13.62,100,0,0,860.3005,0,-0.676,3.11,209,16.06,15.3,1.296023,0,49.68,56.23,33.22,34.8
"2017-06-21 23:20:00",293529,0.777,297.5,13.6,100,0,0,860.3154,0,-29.55,3.392,245,16.07,15.31,0.9398062,0,49.68,56.29,33.22,34.82
"2017-06-21 23:30:00",293530,0.614,215.5,13.49,100,0,0,860.2722,0,318,0,0,16.07,15.31,0.6404324,0,49.62,56.29,33.2,34.82
"2017-06-21 23:40:00",293531,0.898,258.5,13.32,100,0,0,860.2911,0,318,0,0,16.01,15.32,0.7465395,0,49.68,56.29,33.22,34.82
"2017-06-21 23:50:00",293532,1.517,278.5,13.11,99.9,0,0,860.3077,0,-22.81,3.329,210,15.99,15.3,1.061072,0,49.68,56.35,33.22,34.83
